Flag for Germany Weather past 2 weeks in Varel, Lower Saxony, Germany

Now
66 °F

Sprinkles. Broken clouds.


Feels Like: 66 °F
Forecast: 64 / 77 °F
Wind: 8 mph from Northeast

Location: Wittmundhaven

Current Time: Jul 25, 2014 at 8:25:58 PM

Latest Report: Jul 25, 2014 at 7:20 PM


Visibility: N/A

Pressure: 29.98 "Hg

Humidity: 78%

Dew point: 59 °F

Location of VarelLocation

Historic Weather in Varel — Graph

°F

Varel temperature yesterday

Maximum temperature yesterday: 79 °F (at 3:20 PM)
Minimum temperature yesterday: 61 °F (at 5:20 AM)
Average temperature yesterday: 71 °F

Past Weeks' High & Low Weather Summary

 TemperatureHumidityPressure
High91 °F (Jul 19, 2:20 PM)100% (Jul 15, 4:20 AM)30.18 "Hg (Jul 15, 4:20 AM)
Low54 °F (Jul 15, 4:20 AM)32% (Jul 19, 5:20 PM)29.68 "Hg (Jul 13, 3:20 PM)
Average69 °F72%29.99 "Hg
* Reported Jul 10 6:20 PM — Jul 25 6:20 PM, Varel, Weather by CustomWeather, © 2014

Note: Actual official high and low records may vary slightly from our data, if they occured in-between our weather recording intervals... More about our weather records

Advertising

Varel weather history for previous 24 hours

 ConditionsComfort  
Time TempWeatherWind HumidityBarometerVisibility
6:20 PM
Jul 25
73 °FBroken clouds.3 mph69%29.98 "HgN/A
5:20 PM73 °FBroken clouds.1 mph69%29.98 "HgN/A
4:20 PM72 °FBroken clouds.8 mph73%29.98 "HgN/A
3:20 PM72 °FLight rain. Broken clouds.9 mph78%29.98 "HgN/A
2:20 PM70 °FBroken clouds.10 mph78%30.01 "HgN/A
1:20 PM72 °FBroken clouds.12 mph73%30.01 "HgN/A
12:20 PM72 °FBroken clouds.10 mph69%30.01 "HgN/A
11:20 AM70 °FBroken clouds.7 mph78%30.04 "HgN/A
10:20 AM68 °FLight rain. Broken clouds.3 mph83%30.04 "HgN/A
9:20 AM66 °FLight rain. Partly sunny.5 mph83%30.04 "HgN/A
8:20 AM66 °FLight rain. Partly sunny.6 mph83%30.04 "HgN/A
7:20 AM64 °FPartly sunny.3 mph83%30.04 "HgN/A
6:20 AM63 °FPassing clouds.3 mph88%30.04 "HgN/A
5:20 AM63 °FPassing clouds.2 mph88%30.04 "HgN/A
4:20 AM63 °FPassing clouds.1 mph88%30.04 "HgN/A
3:20 AM63 °FLight rain. Passing clouds.2 mph88%30.04 "HgN/A
2:20 AM64 °FPassing clouds.2 mph83%30.07 "HgN/A
1:20 AM64 °FPassing clouds.No wind83%30.07 "HgN/A
12:20 AM66 °FPassing clouds.5 mph83%30.07 "HgN/A
11:20 PM
Jul 24
68 °FPassing clouds.3 mph78%30.07 "HgN/A
10:20 PM70 °FPartly sunny.6 mph78%30.07 "HgN/A
9:20 PM70 °FPartly sunny.3 mph83%30.04 "HgN/A
8:20 PM73 °FPartly sunny.6 mph69%30.04 "HgN/A
Weather by CustomWeather, © 2014

See weather overviewHow to use our weather pages